When you browse on this site, cookies collect data to enhance your experience and personalize the content and advertising you see.
Visit our Privacy Policy to learn more. By continuing to use the site, you agree to this use of cookies and data.

Meteo orario Onvervaht

Oggi, 8 Luglio, Mercoledi

Tempo Temperatura Precipitazioni Vento Pressione Umidità
00:00 +23°C° 0.7 mm 0 m/s 757 mm Hg 97%
01:00 +23°C° 0.7 mm 0 m/s 757 mm Hg 98%
02:00 +22°C° 0 mm 0 m/s 756 mm Hg 98%
03:00 +22°C° 0.1 mm 0 m/s 756 mm Hg 98%
04:00 +22°C° 0.1 mm 0 m/s 756 mm Hg 98%
05:00 +22°C° 0.1 mm 0 m/s 756 mm Hg 98%
06:00 +23°C° 0.7 mm 0 m/s 757 mm Hg 96%
07:00 +24°C° 0.7 mm 0 m/s 757 mm Hg 95%
08:00 +26°C° 0.7 mm 0 m/s 757 mm Hg 93%
09:00 +28°C° 1.1 mm 1 m/s 757 mm Hg 92%
10:00 +29°C° 1.1 mm 1 m/s 757 mm Hg 90%
11:00 +29°C° 1.1 mm 2 m/s 757 mm Hg 88%
12:00 +29°C° 0.6 mm 2 m/s 757 mm Hg 84%
13:00 +30°C° 0.6 mm 2 m/s 756 mm Hg 80%
14:00 +30°C° 0.6 mm 2 m/s 756 mm Hg 76%
15:00 +29°C° 0.2 mm 1 m/s 756 mm Hg 79%
16:00 +29°C° 0.2 mm 1 m/s 755 mm Hg 82%
17:00 +28°C° 0.2 mm 1 m/s 755 mm Hg 86%
18:00 +27°C° 0 mm 1 m/s 756 mm Hg 89%
19:00 +26°C° 0 mm 1 m/s 756 mm Hg 93%
20:00 +23°C° 0 mm 0 m/s 757 mm Hg 97%
21:00 +23°C° 0.1 mm 0 m/s 757 mm Hg 97%
22:00 +23°C° 0.1 mm 0 m/s 757 mm Hg 98%
23:00 +23°C° 0.1 mm 0 m/s 757 mm Hg 98%

Domani, 9 Luglio, Giovedi

Tempo Temperatura Precipitazioni Vento Pressione Umidità
00:00 +23°C° 0.6 mm 0 m/s 757 mm Hg 98%
01:00 +23°C° 0.6 mm 0 m/s 757 mm Hg 99%
02:00 +23°C° 0.6 mm 0 m/s 756 mm Hg 99%
03:00 +23°C° 0 mm 0 m/s 756 mm Hg 99%
04:00 +22°C° 0 mm 0 m/s 756 mm Hg 99%
05:00 +22°C° 0 mm 0 m/s 756 mm Hg 98%
06:00 +24°C° 0 mm 0 m/s 757 mm Hg 95%
07:00 +25°C° 0 mm 0 m/s 757 mm Hg 92%
08:00 +28°C° 0 mm 1 m/s 757 mm Hg 89%
09:00 +29°C° 1 mm 1 m/s 757 mm Hg 86%
10:00 +30°C° 1 mm 1 m/s 758 mm Hg 82%
11:00 +31°C° 1 mm 1 m/s 758 mm Hg 79%
12:00 +30°C° 1.7 mm 1 m/s 757 mm Hg 83%
13:00 +30°C° 1.7 mm 1 m/s 757 mm Hg 86%
14:00 +29°C° 1.7 mm 1 m/s 756 mm Hg 90%
15:00 +29°C° 0.7 mm 1 m/s 756 mm Hg 91%
16:00 +28°C° 0.7 mm 1 m/s 756 mm Hg 93%
17:00 +27°C° 0.7 mm 1 m/s 756 mm Hg 95%
18:00 +27°C° 0.1 mm 1 m/s 757 mm Hg 95%
19:00 +26°C° 0.1 mm 1 m/s 757 mm Hg 96%
20:00 +26°C° 0.1 mm 1 m/s 758 mm Hg 97%
21:00 +25°C° 0 mm 1 m/s 758 mm Hg 97%
22:00 +25°C° 0 mm 1 m/s 758 mm Hg 97%
23:00 +25°C° 0 mm 1 m/s 758 mm Hg 97%

Dopodomani, 10 Luglio, Venerdi

Tempo Temperatura Precipitazioni Vento Pressione Umidità
00:00 +25°C° 0 mm 1 m/s 758 mm Hg 97%
01:00 +25°C° 0 mm 1 m/s 757 mm Hg 97%
02:00 +25°C° 0 mm 1 m/s 756 mm Hg 97%
03:00 +25°C° 0 mm 1 m/s 757 mm Hg 97%
04:00 +24°C° 0 mm 1 m/s 757 mm Hg 97%
05:00 +24°C° 0 mm 1 m/s 757 mm Hg 97%
06:00 +26°C° 0.1 mm 1 m/s 758 mm Hg 94%
07:00 +27°C° 0.1 mm 1 m/s 758 mm Hg 90%
08:00 +28°C° 0.1 mm 1 m/s 758 mm Hg 87%
09:00 +29°C° 0.6 mm 1 m/s 758 mm Hg 83%
10:00 +30°C° 0.6 mm 1 m/s 758 mm Hg 78%
11:00 +31°C° 0.6 mm 1 m/s 758 mm Hg 74%
12:00 +31°C° 0.7 mm 1 m/s 758 mm Hg 73%
13:00 +32°C° 0.7 mm 1 m/s 757 mm Hg 71%
14:00 +32°C° 0.7 mm 1 m/s 756 mm Hg 70%
15:00 +31°C° 0.7 mm 1 m/s 756 mm Hg 77%
16:00 +29°C° 0.7 mm 1 m/s 756 mm Hg 85%
17:00 +28°C° 0.7 mm 1 m/s 756 mm Hg 93%
18:00 +27°C° 0.3 mm 1 m/s 757 mm Hg 94%
19:00 +26°C° 0.3 mm 1 m/s 757 mm Hg 96%
20:00 +26°C° 0.3 mm 1 m/s 758 mm Hg 97%
21:00 +25°C° 0 mm 1 m/s 758 mm Hg 97%
22:00 +25°C° 0 mm 1 m/s 758 mm Hg 97%
23:00 +25°C° 0 mm 1 m/s 759 mm Hg 98%

11 Luglio, Sabato

Tempo Temperatura Precipitazioni Vento Pressione Umidità
00:00 +25°C° 0 mm 1 m/s 758 mm Hg 98%
01:00 +24°C° 0 mm 1 m/s 757 mm Hg 98%
02:00 +24°C° 0 mm 1 m/s 757 mm Hg 98%
03:00 +24°C° 0 mm 1 m/s 757 mm Hg 98%
04:00 +24°C° 0 mm 1 m/s 757 mm Hg 99%
05:00 +24°C° 0 mm 1 m/s 757 mm Hg 99%
06:00 +25°C° 0 mm 1 m/s 757 mm Hg 95%
07:00 +26°C° 0 mm 1 m/s 758 mm Hg 91%
08:00 +27°C° 0 mm 1 m/s 758 mm Hg 87%
09:00 +29°C° 0 mm 1 m/s 758 mm Hg 76%
10:00 +31°C° 0 mm 2 m/s 758 mm Hg 65%
11:00 +34°C° 0 mm 2 m/s 758 mm Hg 54%
12:00 +32°C° 0.6 mm 2 m/s 757 mm Hg 64%
13:00 +31°C° 0.6 mm 2 m/s 757 mm Hg 73%
14:00 +30°C° 0.6 mm 2 m/s 756 mm Hg 83%
15:00 +30°C° 1.1 mm 2 m/s 756 mm Hg 86%
16:00 +29°C° 1.1 mm 1 m/s 756 mm Hg 90%
17:00 +28°C° 1.1 mm 1 m/s 756 mm Hg 94%
18:00 +27°C° 0.1 mm 1 m/s 757 mm Hg 95%
19:00 +26°C° 0.1 mm 1 m/s 757 mm Hg 96%
20:00 +25°C° 0.1 mm 1 m/s 758 mm Hg 98%
21:00 +25°C° 0 mm 1 m/s 758 mm Hg 98%
22:00 +25°C° 0 mm 1 m/s 758 mm Hg 98%
23:00 +25°C° 0 mm 1 m/s 758 mm Hg 98%

12 Luglio, Domenica

Tempo Temperatura Precipitazioni Vento Pressione Umidità
00:00 +24°C° 0 mm 1 m/s 758 mm Hg 98%
01:00 +24°C° 0 mm 1 m/s 757 mm Hg 99%
02:00 +24°C° 0 mm 1 m/s 757 mm Hg 99%
03:00 +22°C° 0 mm 0 m/s 757 mm Hg 99%
04:00 +22°C° 0 mm 0 m/s 757 mm Hg 99%
05:00 +22°C° 0 mm 0 m/s 757 mm Hg 99%
06:00 +25°C° 0 mm 1 m/s 757 mm Hg 95%
07:00 +26°C° 0 mm 1 m/s 758 mm Hg 91%
08:00 +28°C° 0 mm 1 m/s 758 mm Hg 88%
09:00 +29°C° 0.4 mm 1 m/s 758 mm Hg 84%
10:00 +30°C° 0.4 mm 1 m/s 758 mm Hg 81%
11:00 +31°C° 0.4 mm 2 m/s 758 mm Hg 77%
12:00 +30°C° 1.2 mm 2 m/s 757 mm Hg 80%
13:00 +30°C° 1.2 mm 2 m/s 757 mm Hg 83%
14:00 +30°C° 1.2 mm 2 m/s 756 mm Hg 86%
15:00 +29°C° 0.6 mm 1 m/s 756 mm Hg 88%
16:00 +29°C° 0.6 mm 1 m/s 756 mm Hg 89%
17:00 +28°C° 0.6 mm 1 m/s 756 mm Hg 91%
18:00 +27°C° 0.1 mm 1 m/s 756 mm Hg 93%
19:00 +26°C° 0.1 mm 1 m/s 757 mm Hg 95%
20:00 +26°C° 0.1 mm 1 m/s 757 mm Hg 97%
21:00 +25°C° 0.1 mm 1 m/s 757 mm Hg 97%
22:00 +23°C° 0.1 mm 0 m/s 758 mm Hg 98%
23:00 +23°C° 0.1 mm 0 m/s 758 mm Hg 99%

13 Luglio, Lunedi

Tempo Temperatura Precipitazioni Vento Pressione Umidità
00:00 +23°C° 0.2 mm 0 m/s 757 mm Hg 99%
01:00 +23°C° 0.2 mm 0 m/s 757 mm Hg 99%
02:00 +22°C° 0.2 mm 0 m/s 756 mm Hg 99%
03:00 +22°C° 0.1 mm 0 m/s 757 mm Hg 99%
04:00 +22°C° 0.1 mm 0 m/s 757 mm Hg 99%
05:00 +22°C° 0.1 mm 0 m/s 757 mm Hg 99%
06:00 +23°C° 0 mm 0 m/s 757 mm Hg 95%
07:00 +26°C° 0 mm 1 m/s 758 mm Hg 91%
08:00 +28°C° 0 mm 1 m/s 758 mm Hg 87%
09:00 +30°C° 0 mm 1 m/s 758 mm Hg 75%
10:00 +32°C° 0 mm 1 m/s 758 mm Hg 63%
11:00 +34°C° 0 mm 1 m/s 758 mm Hg 51%
12:00 +33°C° 0.2 mm 1 m/s 757 mm Hg 57%
13:00 +33°C° 0.2 mm 1 m/s 757 mm Hg 63%
14:00 +32°C° 0.2 mm 1 m/s 756 mm Hg 68%
15:00 +31°C° 0.6 mm 1 m/s 756 mm Hg 76%
16:00 +29°C° 0.6 mm 1 m/s 756 mm Hg 84%
17:00 +28°C° 0.6 mm 1 m/s 756 mm Hg 92%
18:00 +27°C° 0.2 mm 1 m/s 756 mm Hg 94%
19:00 +26°C° 0.2 mm 1 m/s 757 mm Hg 96%
20:00 +25°C° 0.2 mm 1 m/s 757 mm Hg 98%
21:00 +25°C° 0 mm 1 m/s 757 mm Hg 98%
22:00 +25°C° 0 mm 1 m/s 758 mm Hg 98%
23:00 +25°C° 0 mm 1 m/s 758 mm Hg 98%
Mostrare altro